Theta_e
300 300 299 297 295 295 295 295 296 296 296 296 296 296 296 295 294 293 295 294 294 294 294 293 291 290 289 289 289 290 290 290 289 289 289 289 289 289 289 289 289 288 287 286 286 286 284 283 283 283 283 283 283 283 283 282 281 281 283 282 280 279 280 279 280 279 279 279 278 279 280 281 285 282 280 279 280 280 280 280 281 281 280 281 281
298 297 298 294 294 293 293 294 294 294 295 295 296 296 296 295 294 294 294 294 294 294 294 293 293 292 291 290 291 290 290 289 289 289 289 289 289 289 289 289 288 288 287 286 286 285 284 283 283 283 283 283 283 282 281 283 282 282 282 279 279 278 279 279 279 278 279 278 279 280 278 278 283 280 281 280 280 280 280 280 281 280 280 280 281
297 297 297 295 293 293 293 293 294 296 296 295 296 296 295 295 295 294 294 294 294 294 294 294 293 293 292 291 291 290 290 290 290 290 290 288 288 288 288 288 288 287 287 287 286 285 284 284 283 283 283 283 282 282 282 281 281 282 281 281 279 279 280 281 279 277 278 278 278 278 277 279 282 278 278 279 279 280 280 280 281 280 280 280 281
297 297 297 294 292 293 291 292 293 294 294 294 295 295 295 295 295 294 294 294 294 294 295 294 294 292 290 288 289 289 288 289 288 287 288 287 287 287 288 288 288 287 287 286 286 285 284 284 283 283 283 283 283 282 281 281 281 281 280 281 281 279 278 279 281 279 277 279 279 278 276 277 276 277 276 278 278 279 279 279 280 280 279 280 280
297 297 297 295 292 291 291 292 291 293 294 295 295 295 296 295 295 294 294 294 294 294 294 293 292 289 288 287 287 286 286 287 285 285 287 287 287 286 287 288 288 287 287 286 286 285 284 284 283 283 283 282 282 282 282 281 281 282 281 281 280 281 278 277 280 279 278 280 279 276 276 278 277 276 276 276 276 278 279 278 282 280 279 281 278
295 296 296 296 293 292 290 290 291 293 294 295 295 296 296 295 295 294 294 294 293 293 294 293 292 291 288 288 286 287 286 285 286 287 286 286 287 288 287 287 287 287 286 286 286 286 284 284 283 283 282 282 282 282 282 280 280 281 281 281 279 279 280 278 278 280 279 280 278 276 278 278 276 275 276 278 277 278 277 278 279 278 278 279 278
292 293 294 293 292 291 290 290 291 292 294 295 294 294 294 295 294 294 294 293 293 293 293 293 291 291 290 290 290 289 288 288 289 289 288 288 289 287 287 287 287 287 286 286 286 285 284 284 283 283 283 282 283 281 281 281 281 281 281 280 279 281 280 278 279 278 277 278 278 278 279 278 277 276 275 276 277 276 276 277 278 277 277 278 278
293 292 292 292 292 292 293 293 292 293 294 292 293 293 294 294 293 293 293 293 293 293 293 293 292 291 290 290 290 290 290 290 289 289 289 288 288 287 287 286 286 287 286 285 285 285 284 283 283 283 282 282 283 282 282 281 281 281 281 280 279 281 280 281 278 278 278 278 279 278 278 278 277 277 276 276 275 274 275 276 276 276 276 277 278
291 292 292 291 292 292 292 293 293 292 292 293 293 294 294 293 293 292 293 293 292 292 292 292 292 291 291 290 290 291 291 290 288 289 288 288 287 286 286 286 286 286 286 285 285 285 285 284 283 283 282 282 283 282 281 280 280 280 280 279 279 279 279 280 279 278 278 278 277 276 277 276 276 276 277 277 275 274 274 275 276 276 276 277 278
292 292 291 291 290 291 291 290 290 291 291 292 291 292 291 290 291 291 291 292 292 292 292 292 292 292 290 290 290 290 290 287 287 287 287 286 286 285 286 285 285 285 285 285 284 284 284 284 283 283 282 282 283 281 280 280 280 280 281 280 280 279 278 279 279 279 279 279 279 278 276 275 276 276 275 276 276 275 276 274 275 275 275 276 276
290 289 289 289 289 288 288 289 289 288 288 290 290 289 289 290 290 290 291 291 291 291 292 291 291 291 291 291 290 290 289 286 285 285 285 284 286 285 285 285 285 285 285 284 285 284 284 284 283 283 283 283 283 281 280 280 280 280 280 280 279 279 279 279 281 278 278 279 278 278 278 278 277 275 275 275 275 274 274 274 275 276 275 275 276
290 289 291 289 290 290 288 288 288 287 288 289 288 288 289 289 289 289 289 290 290 291 291 291 291 291 291 291 290 290 289 288 287 286 285 285 286 285 285 285 284 285 284 284 284 284 284 283 283 283 282 282 282 281 281 280 280 280 280 280 279 279 278 279 278 278 277 278 278 278 278 278 277 276 277 277 276 275 276 275 274 275 275 275 277
290 290 290 292 291 291 290 289 287 287 288 287 288 287 288 288 288 289 289 289 290 290 290 291 291 291 291 290 290 290 289 289 288 287 286 286 286 285 284 284 284 284 284 284 284 283 284 283 282 282 282 282 282 281 281 280 280 280 280 279 279 279 279 279 278 278 278 278 278 277 277 277 277 276 277 277 277 276 276 275 274 275 273 274 275
290 289 289 289 291 292 291 289 288 287 286 287 287 287 287 288 288 288 289 288 289 289 290 290 290 291 291 291 290 290 290 289 288 288 287 287 287 286 285 285 285 285 285 284 285 284 284 284 283 283 282 282 282 281 280 280 280 280 280 279 279 279 279 279 278 278 278 278 278 277 276 277 276 277 277 277 276 276 274 274 274 273 273 273 274
289 289 290 290 290 290 290 290 289 287 287 286 286 287 287 288 288 288 288 288 288 289 289 289 290 290 291 291 290 290 290 289 289 289 288 287 286 286 286 286 285 285 285 285 285 284 284 284 283 282 282 282 282 281 281 280 280 280 280 279 279 279 279 279 278 278 278 277 277 277 277 277 276 276 277 277 277 277 276 275 274 273 272 272 272
291 290 291 289 289 289 289 289 289 288 287 286 286 287 287 288 288 288 288 288 288 288 289 289 290 290 290 290 290 290 290 290 289 289 288 288 287 287 286 286 286 286 285 285 285 284 284 283 283 282 282 281 281 281 280 280 280 279 279 279 278 279 279 278 278 278 278 277 277 277 277 276 276 277 277 277 276 276 276 276 275 274 273 271 272
291 292 290 290 288 288 289 288 288 287 287 287 287 288 288 288 288 288 288 288 288 289 289 289 289 289 289 289 290 289 289 289 289 288 288 287 287 287 287 286 286 286 285 285 285 284 284 283 283 282 282 281 281 281 280 280 279 279 279 279 278 278 278 278 278 278 278 277 277 277 277 277 276 276 277 276 276 276 276 276 276 275 274 273 270
289 289 289 288 288 289 289 290 289 289 289 288 288 287 288 288 289 288 288 288 288 288 288 288 288 288 289 289 289 289 289 289 289 288 288 287 286 286 286 286 285 286 285 285 284 284 284 284 283 282 282 281 281 280 280 280 279 279 279 279 279 278 278 278 277 277 277 277 277 276 276 276 276 276 276 276 276 276 275 275 275 275 275 274 273
290 290 290 290 290 291 292 292 291 291 290 288 288 287 287 287 288 288 289 289 289 289 288 288 288 289 289 289 289 289 289 289 289 288 287 287 286 286 286 286 284 285 285 284 284 283 283 283 283 282 281 281 280 280 280 279 279 279 279 278 278 278 278 277 277 277 277 277 276 276 276 276 276 276 276 275 276 275 275 275 275 275 275 274 273
290 291 293 294 294 293 292 292 291 290 290 289 288 286 286 287 287 288 288 287 287 287 287 288 288 288 289 288 288 289 289 289 288 288 287 286 286 286 285 285 285 285 284 284 284 283 283 283 283 282 281 281 280 280 280 279 279 279 279 278 278 278 278 277 277 277 277 276 276 276 276 275 275 275 275 275 275 275 275 275 274 274 274 274 273
291 294 294 293 293 292 292 290 291 288 287 288 289 289 289 287 287 287 287 287 287 288 287 288 288 288 288 288 288 288 288 288 287 287 287 286 286 286 285 286 284 284 284 284 284 283 283 283 282 282 281 281 280 280 280 279 279 279 279 278 278 278 277 277 277 276 276 276 276 276 275 275 275 275 275 275 274 274 274 274 274 274 273 274 273
292 291 291 290 289 289 289 289 289 289 289 290 291 289 289 289 289 288 287 286 287 287 288 288 288 289 288 288 288 288 288 287 287 286 286 286 286 286 286 285 285 285 284 284 284 283 283 283 282 282 282 281 280 280 280 280 279 279 278 278 277 277 277 277 276 276 276 276 276 275 275 275 275 275 274 274 274 274 274 273 273 273 273 273 274
289 288 288 287 287 286 287 287 287 288 288 289 289 290 290 289 288 287 287 287 287 288 287 287 287 288 288 288 287 287 286 286 286 286 286 286 286 286 286 285 285 284 284 284 284 283 283 283 282 282 281 281 280 280 280 279 279 279 278 278 277 277 277 277 276 276 276 276 275 275 275 274 274 274 274 274 274 273 273 273 272 273 272 272 273
287 286 285 285 285 285 286 286 286 287 287 288 289 289 290 290 289 288 288 288 288 287 287 286 287 287 287 287 287 287 286 286 286 287 286 287 287 286 286 285 285 284 283 284 284 283 283 282 282 282 281 281 280 280 280 279 279 279 278 278 277 277 278 277 277 277 276 275 275 275 274 274 274 273 273 273 273 273 273 272 272 272 272 272 272
284 284 284 284 284 284 284 285 285 286 286 287 288 288 289 289 290 290 289 289 288 288 287 287 286 286 287 287 287 286 286 286 286 287 287 287 287 286 285 285 284 284 284 283 283 283 282 282 282 282 281 281 280 280 280 279 279 279 279 278 278 277 277 277 277 277 277 276 275 275 274 274 274 273 272 272 272 272 272 272 271 272 272 272 272
283 283 283 283 283 284 284 284 285 286 286 286 287 287 288 288 289 289 289 289 290 288 287 287 286 286 286 286 286 286 286 287 287 287 287 287 287 286 285 284 284 284 284 283 283 283 283 282 282 282 281 281 281 280 280 279 279 279 279 278 278 277 278 277 277 277 276 276 275 275 274 274 273 272 272 272 272 272 272 271 271 271 271 271 271
282 282 282 283 283 283 283 284 285 285 286 286 287 287 287 287 287 288 289 289 289 288 288 287 287 286 286 286 285 286 286 287 287 287 287 287 286 286 285 285 284 284 283 283 283 282 283 282 282 282 281 281 280 280 280 279 279 279 278 278 277 277 277 277 276 276 276 275 275 275 274 274 273 273 272 272 272 271 271 271 271 271 271 271 270
282 282 281 281 282 282 283 283 284 284 285 286 286 287 286 286 286 287 288 288 288 288 288 287 287 286 286 287 287 287 287 287 287 287 287 287 286 286 286 285 284 283 283 283 283 283 283 282 282 282 281 281 280 280 279 279 279 278 278 277 277 277 276 276 276 275 275 275 274 274 274 274 273 273 273 272 272 271 272 271 271 271 271 271 270
280 281 281 281 281 282 282 282 283 283 284 284 285 286 286 286 286 286 287 287 287 287 287 287 287 287 287 287 287 287 287 286 286 286 286 286 286 286 286 285 284 283 284 283 283 282 282 281 281 281 281 281 280 280 279 279 278 278 278 277 277 276 276 275 275 274 274 274 273 273 273 273 274 275 276 275 275 274 271 270 271 271 271 271 270
280 280 280 281 281 281 282 282 282 283 283 283 284 285 285 284 284 285 286 286 287 286 286 286 286 286 287 287 287 287 286 286 285 285 286 286 285 285 284 284 284 283 283 282 282 281 281 281 281 280 280 280 280 280 281 283 282 278 278 277 277 276 276 275 275 274 273 273 273 273 273 276 276 277 277 277 278 277 276 273 272 271 271 270 269
281 281 281 281 281 281 282 282 282 282 283 283 284 284 284 284 284 284 285 285 285 286 286 285 285 286 286 286 286 286 286 286 286 286 286 286 285 285 284 284 283 283 282 282 281 281 281 281 281 280 280 280 280 280 283 284 284 284 279 277 276 276 276 275 274 273 272 273 272 273 272 275 276 277 276 278 278 279 278 277 277 276 275 272 270
280 281 282 282 282 282 282 282 283 283 283 283 283 284 284 283 283 283 284 284 284 284 285 285 285 285 285 285 285 286 286 286 285 285 285 285 285 284 284 284 283 282 282 282 281 281 281 281 281 280 280 280 279 282 284 285 285 285 282 278 277 276 275 275 274 274 273 273 272 272 272 273 274 275 275 276 277 279 279 278 278 278 277 277 277
281 281 282 282 282 282 283 283 284 284 284 284 284 283 283 283 283 283 283 283 283 283 283 284 284 284 284 284 284 284 284 285 285 285 285 284 284 284 283 282 282 282 282 281 281 281 280 281 281 280 280 280 279 283 284 285 285 285 284 280 276 276 275 274 274 274 274 273 273 272 272 273 274 277 276 275 275 276 279 279 279 279 279 279 280
282 282 282 282 283 283 283 283 284 284 284 285 285 284 284 284 283 283 283 282 282 282 282 283 283 283 283 283 282 283 283 284 284 284 283 283 282 283 283 283 282 281 281 281 280 280 280 280 280 280 280 280 279 282 285 285 286 286 285 282 276 275 275 274 274 274 274 273 273 272 272 272 273 275 275 274 275 275 276 277 277 277 277 279 281
282 283 283 282 282 283 283 283 283 284 284 285 285 285 285 284 284 283 283 282 282 282 282 282 282 282 283 282 282 281 281 282 282 282 282 282 282 282 282 282 282 281 281 281 280 280 280 280 280 280 279 279 279 282 284 285 286 286 285 283 276 275 275 274 274 274 274 273 273 272 272 272 273 274 274 274 274 275 276 276 276 277 277 276 275
283 283 283 282 282 282 282 282 284 284 284 284 284 285 285 284 284 284 284 283 283 282 282 282 281 281 281 282 281 280 281 281 281 281 280 281 281 281 281 281 280 281 281 281 280 280 280 279 279 279 279 278 278 282 284 285 286 286 286 280 276 275 274 274 274 274 274 273 273 273 273 273 273 273 276 279 277 275 274 273 272 273 273 273 273
284 284 283 283 283 282 282 283 283 284 283 283 284 285 284 283 283 283 283 283 283 283 283 282 281 281 281 281 280 280 279 280 280 279 279 279 279 279 279 278 278 278 279 279 279 280 280 280 279 279 278 278 277 281 284 285 286 286 285 278 275 274 274 273 273 273 273 274 274 274 274 273 274 273 277 280 280 278 273 271 270 270 270 270 272
284 284 283 283 282 282 282 283 282 283 283 283 284 284 283 282 282 282 283 283 283 282 283 282 282 282 281 281 281 280 280 279 279 278 278 279 277 277 278 277 278 277 277 277 276 277 278 278 279 278 278 277 276 279 283 285 286 286 283 276 275 274 273 273 273 273 274 274 274 276 276 274 274 274 279 281 281 277 271 271 270 269 269 269 272
283 283 282 282 282 282 282 282 282 282 282 283 283 283 282 281 281 281 282 281 282 282 282 282 282 282 282 282 281 281 281 280 279 279 278 278 277 277 275 273 275 276 277 277 277 277 276 276 277 278 279 278 276 278 283 285 285 286 282 275 274 273 273 272 273 272 274 274 274 276 277 276 275 276 281 282 281 277 271 271 270 270 270 271 273
281 282 282 281 281 281 281 281 281 281 282 282 282 282 281 281 280 281 281 281 281 282 283 282 282 282 282 282 282 281 281 280 280 280 280 279 278 276 275 274 273 275 274 275 276 276 276 275 276 276 276 277 276 276 281 284 285 286 283 276 274 273 272 272 273 273 273 273 274 275 277 279 278 279 281 282 281 280 273 272 272 272 272 271 274
280 280 282 280 280 280 280 280 281 281 281 281 281 280 280 280 280 280 280 280 281 282 282 282 282 282 282 282 281 281 280 280 280 279 279 278 277 278 276 274 273 272 272 273 274 275 275 275 274 275 275 276 275 275 279 284 285 286 284 278 274 274 274 273 273 273 273 273 273 274 275 279 280 280 281 281 281 281 278 275 274 273 273 274 275
280 281 280 279 279 279 279 280 280 280 280 280 280 279 279 279 279 278 279 281 281 281 281 282 282 282 281 281 281 281 280 279 279 278 278 278 277 275 276 275 274 273 273 273 274 274 274 273 273 274 274 274 275 277 277 282 285 286 284 281 275 275 275 274 273 273 273 273 273 274 274 278 280 280 280 281 281 281 281 276 275 278 278 278 276
277 277 278 278 277 277 277 278 278 278 278 279 278 277 277 277 277 278 279 280 280 280 280 281 281 281 281 281 280 280 280 279 278 278 277 277 276 274 274 274 274 274 274 273 273 273 273 272 272 272 273 274 274 276 279 280 284 285 285 282 279 277 279 275 274 273 273 273 273 273 274 278 280 280 280 281 281 281 281 277 279 279 278 279 276
275 275 275 275 275 276 276 276 276 276 276 276 276 276 276 276 276 278 279 279 279 279 280 280 280 280 280 281 280 279 279 278 278 277 277 277 276 275 274 274 274 274 273 273 273 272 272 272 271 271 272 273 273 274 277 280 282 285 286 284 281 280 280 275 275 274 274 273 273 273 274 279 280 280 280 281 281 281 279 280 279 279 279 276 267
274 274 274 273 273 273 274 274 274 274 274 274 274 274 274 274 276 277 277 277 277 278 278 277 277 278 279 280 280 279 278 278 278 277 276 276 276 274 273 273 273 273 273 273 273 272 272 272 272 271 271 272 272 273 274 278 281 283 285 285 282 281 281 279 274 273 274 273 275 276 277 278 280 281 281 281 281 280 280 279 279 278 273 266 265
273 273 273 272 272 272 272 272 272 273 273 273 273 272 272 273 275 275 275 275 275 275 275 275 276 277 277 278 278 278 279 278 277 277 277 277 276 275 274 274 273 273 273 273 273 272 272 272 272 271 271 270 271 272 273 275 279 281 283 285 283 281 280 279 276 274 276 277 277 277 278 278 280 280 279 277 273 275 278 278 276 271 265 263 262
271 272 272 271 271 271 270 271 271 272 272 272 272 272 273 273 273 273 273 273 273 273 273 273 273 273 274 274 274 275 277 278 277 277 276 276 276 276 275 274 274 273 273 273 273 273 272 272 272 271 270 270 269 271 272 273 276 278 280 282 282 280 280 278 275 274 276 275 276 277 277 279 278 279 276 274 274 274 270 268 264 264 262 261 260
271 271 271 270 270 269 269 269 270 271 271 271 271 271 271 271 271 272 271 271 271 271 270 270 270 270 271 271 272 273 275 276 277 276 276 276 276 276 275 275 274 274 273 273 273 273 273 272 272 272 270 269 269 270 271 272 274 277 279 281 280 278 277 274 273 274 274 275 275 277 277 275 273 270 268 266 266 265 264 263 262 261 261 261 262
270 269 269 269 269 268 269 268 269 270 270 270 270 270 270 270 270 269 269 268 268 269 268 267 267 268 268 270 271 272 273 275 276 276 276 277 276 276 275 275 277 277 276 275 275 274 274 274 273 272 270 269 269 269 270 275 275 278 279 279 278 277 276 273 275 277 274 273 273 271 268 267 266 265 264 263 262 261 261 260 259 259 260 260 260
269 269 268 268 268 268 267 268 268 269 268 268 268 268 269 269 268 267 267 266 266 266 265 265 266 266 267 269 270 271 272 273 274 275 276 276 277 279 278 276 276 278 280 280 280 276 276 275 274 273 273 271 270 271 275 277 278 280 281 282 280 280 278 275 277 279 275 271 270 268 267 267 266 265 264 264 262 262 260 259 258 262 260 259 258
267 267 267 267 267 267 267 266 267 267 267 267 266 266 266 266 266 265 265 264 264 264 264 264 265 266 267 268 269 269 270 271 272 274 275 275 275 276 280 281 280 279 279 280 281 281 281 279 275 273 274 278 276 276 277 278 278 280 281 282 282 280 279 278 279 275 272 270 268 267 267 266 265 265 265 264 262 261 260 259 259 259 259 260 261
Wind_Speed
20 14 12 7 7 7 6 7 9 9 10 11 12 14 14 15 14 17 14 14 13 13 13 13 14 11 8 12 14 12 12 12 11 11 11 11 11 11 11 10 10 10 10 10 10 9 8 7 8 7 7 8 8 10 8 8 6 6 7 4 5 4 1 1 1 2 4 2 3 5 5 3 2 2 3 3 3 2 2 5 4 5 4 5 4
10 11 13 6 6 5 6 7 7 9 11 12 16 17 16 15 16 15 11 13 15 16 15 15 15 17 18 19 17 14 13 13 14 12 13 11 11 10 10 10 11 11 10 11 10 11 10 9 9 10 9 9 7 4 5 5 6 6 7 4 1 4 2 1 0 2 3 3 3 1 4 4 1 0 1 2 3 3 2 3 4 4 5 3 4
12 13 11 6 5 6 7 8 9 13 12 15 15 12 12 13 15 13 13 15 15 15 13 15 13 12 12 8 11 9 8 9 8 9 9 10 10 10 10 10 11 10 11 11 11 11 11 10 10 9 10 8 8 8 7 8 8 10 9 9 5 2 2 1 0 1 5 2 2 4 1 2 1 1 1 1 2 1 0 3 4 4 3 3 3
16 14 11 6 5 7 5 6 7 6 7 8 10 13 12 14 14 14 14 15 14 15 15 12 10 6 4 3 5 5 6 5 5 5 7 7 10 11 11 11 12 12 11 12 10 11 12 12 10 9 10 10 10 10 10 10 9 8 7 5 9 5 2 1 0 0 4 8 2 1 2 2 0 3 3 3 0 1 1 1 2 2 1 3 4
15 16 13 8 5 5 5 6 4 7 9 11 11 13 12 17 16 16 14 15 13 14 14 10 9 7 6 6 5 6 5 6 5 5 9 9 9 11 13 11 11 12 12 13 12 13 11 11 11 11 10 10 9 9 10 12 12 10 10 8 9 9 7 2 1 1 1 1 6 5 2 0 3 1 1 4 3 2 0 1 1 1 1 1 2
10 14 15 9 6 6 4 4 6 8 11 11 10 13 11 11 11 12 11 11 13 14 15 13 13 14 12 11 11 10 9 10 15 17 12 14 17 10 9 13 13 12 11 13 12 11 12 12 11 11 11 10 10 10 9 6 8 9 11 10 8 4 8 7 3 0 1 1 0 0 2 3 5 3 2 2 2 0 2 2 1 0 0 1 0
5 9 7 7 5 5 5 6 9 10 12 8 7 8 10 9 11 13 13 12 12 13 16 13 13 13 17 18 16 17 18 16 14 11 14 13 9 12 13 11 12 13 12 13 13 12 12 11 11 11 11 10 9 8 8 11 11 10 7 7 7 7 8 6 9 6 2 1 3 2 3 2 4 7 5 2 1 1 1 1 1 1 1 1 1
6 5 4 4 5 6 8 9 8 12 9 5 7 7 10 12 11 13 11 11 12 12 15 16 16 15 15 15 14 15 17 16 14 14 11 10 12 13 11 11 12 12 13 12 13 13 12 11 11 10 11 10 10 10 11 9 7 4 7 5 5 7 9 10 8 9 9 4 2 3 3 4 4 5 3 5 3 1 1 1 1 3 2 2 3
4 4 5 5 6 7 7 9 8 6 6 7 8 8 7 7 8 9 12 12 12 15 16 17 15 16 16 15 15 14 13 8 7 7 9 10 12 9 10 10 11 11 11 13 12 12 12 13 12 11 11 11 10 9 8 8 11 11 10 8 9 7 6 6 10 10 7 9 7 2 4 5 4 4 3 4 4 3 5 2 3 2 2 5 6
1 1 3 6 7 7 6 5 6 5 5 5 4 2 3 4 6 8 11 10 10 13 15 16 16 13 14 16 17 14 9 6 7 9 9 8 11 10 10 9 10 10 11 11 11 13 13 12 12 14 13 12 11 11 9 9 9 9 11 10 8 8 5 7 10 9 7 8 9 10 6 4 4 2 1 2 1 1 4 4 2 1 5 2 3
4 4 5 6 5 7 6 6 5 4 3 2 3 4 4 5 6 8 9 8 11 14 15 17 15 15 16 17 17 14 11 9 9 10 9 9 12 11 11 10 10 11 10 10 12 12 13 13 13 13 12 11 11 11 12 11 11 10 9 6 7 9 8 7 4 6 7 8 8 10 11 11 10 8 9 6 5 4 2 5 3 5 5 5 3
5 5 8 6 7 8 6 5 5 3 2 1 2 3 5 5 6 8 6 7 7 11 13 15 15 16 15 16 16 15 13 12 14 14 13 14 13 12 11 9 10 9 10 11 12 12 12 11 11 11 11 12 13 11 10 10 9 8 8 8 8 6 5 7 7 9 9 8 8 7 8 7 6 6 8 9 10 6 7 5 6 4 4 6 3
4 5 6 7 5 6 7 7 4 3 3 4 4 4 4 5 7 9 10 8 9 9 13 14 14 16 16 15 13 12 13 14 14 13 12 14 13 12 12 12 10 10 13 14 14 15 13 12 13 13 12 12 11 10 10 10 10 9 10 10 9 10 10 10 10 11 12 12 11 7 6 6 6 4 7 8 4 5 5 3 2 3 5 3 3
4 5 5 5 5 6 5 4 4 4 4 4 4 4 4 5 6 9 9 8 8 9 11 13 16 15 13 13 13 12 13 13 12 13 13 12 12 14 15 15 15 17 16 17 16 15 14 15 13 13 12 11 12 12 12 11 11 11 11 11 12 10 8 10 9 8 8 7 6 8 7 7 5 5 6 7 8 7 5 6 5 1 1 3 1
4 4 5 6 6 5 5 4 4 4 4 4 4 4 4 5 6 9 8 9 11 12 11 15 14 13 12 13 12 12 13 12 12 12 12 13 12 13 14 13 14 14 15 13 11 15 15 13 14 13 13 12 11 11 11 11 11 9 9 11 9 8 9 9 8 9 10 9 8 8 8 6 6 6 7 7 7 7 8 7 7 3 2 1 3
7 6 6 6 5 5 3 4 4 4 4 4 5 5 6 7 7 9 11 11 12 12 14 14 13 10 11 13 15 13 11 11 10 11 12 14 14 14 14 14 13 11 10 11 13 13 14 14 12 13 12 12 12 11 11 11 11 11 9 9 10 7 10 11 9 9 9 9 9 6 7 7 6 7 6 6 6 6 6 6 6 5 6 4 1
8 8 7 6 8 7 5 3 3 3 3 4 6 7 8 7 8 9 9 8 11 13 13 11 11 10 13 12 11 12 14 15 16 14 12 9 10 11 12 14 11 11 13 13 14 14 14 14 14 13 13 12 12 12 11 10 11 11 10 11 11 9 9 11 9 10 8 8 7 9 8 7 7 6 5 6 6 5 6 6 7 8 7 6 3
7 6 6 7 7 7 7 6 4 2 4 4 6 5 5 6 7 9 8 11 12 10 11 11 12 13 12 13 13 14 14 14 13 13 11 9 9 10 10 11 15 13 10 10 12 14 14 15 14 13 12 12 13 12 11 11 11 10 10 10 10 10 10 7 8 8 8 8 7 7 6 7 6 7 7 7 7 7 7 7 7 5 6 8 6
5 6 5 3 4 4 5 7 6 5 5 5 4 3 3 4 5 7 11 11 8 6 6 7 8 9 9 11 11 12 11 11 10 8 9 12 13 12 12 11 5 8 12 12 13 14 13 14 14 13 13 14 12 12 12 11 11 10 10 9 8 10 10 10 8 9 8 9 9 9 7 7 7 8 7 6 6 7 7 6 6 5 6 5 6
7 8 8 9 10 12 12 14 10 6 6 6 5 4 4 5 5 6 6 5 5 6 6 9 9 8 10 8 10 11 11 11 9 9 10 12 12 11 11 10 13 9 9 11 13 14 15 16 15 15 14 13 14 13 13 12 11 11 10 10 10 11 11 11 10 8 8 9 10 10 10 8 8 7 7 7 7 6 6 7 6 7 6 5 5
9 11 15 18 19 19 18 13 12 9 8 9 10 9 7 5 6 6 8 7 6 7 7 10 8 11 11 12 12 11 13 11 9 9 11 11 10 12 12 12 7 12 12 14 14 14 15 15 15 15 16 15 15 14 13 12 12 12 11 11 10 11 12 10 9 10 8 10 10 10 10 8 8 9 8 7 7 7 6 6 6 6 7 6 7
13 15 16 16 16 17 17 17 12 11 12 13 13 10 9 9 7 7 7 7 6 7 8 8 7 9 11 13 12 9 10 9 11 10 12 11 10 12 12 10 14 13 13 15 14 13 13 14 15 16 15 15 15 15 15 14 14 14 13 10 11 13 12 10 10 12 11 10 10 11 10 9 9 9 8 8 8 8 7 7 7 8 8 8 7
16 16 15 13 13 12 13 16 18 18 18 15 10 10 12 11 9 8 7 9 6 7 5 5 7 8 11 10 8 9 7 8 11 11 13 13 13 12 10 13 14 11 11 12 14 14 15 15 14 14 15 15 16 16 15 15 15 16 16 14 13 14 14 14 14 14 13 11 11 11 11 10 8 9 9 8 8 8 8 8 9 7 8 7 7
14 12 11 11 11 13 16 17 18 18 16 16 16 16 14 11 10 8 9 11 9 7 6 6 7 9 9 8 10 8 7 10 11 12 14 14 13 11 10 12 12 11 13 12 12 14 13 15 15 15 15 15 16 15 15 16 16 17 16 16 15 15 14 14 14 14 13 13 14 12 11 11 10 10 9 8 8 8 9 8 8 8 7 7 6
14 14 14 15 17 17 14 14 14 14 14 15 15 15 15 16 14 14 12 11 9 8 7 7 7 10 9 9 10 8 9 11 13 12 15 15 13 12 9 10 8 10 11 11 12 12 13 14 15 17 18 18 18 17 17 16 15 15 16 15 15 15 15 15 14 13 13 14 14 14 13 12 12 11 9 10 9 11 9 8 9 7 7 6 5
15 16 17 16 12 12 14 15 13 13 13 13 13 13 14 13 14 13 13 12 12 10 8 8 8 9 10 10 10 7 11 13 14 14 15 12 10 9 10 8 10 12 10 11 12 12 13 16 15 15 16 17 16 16 17 18 17 16 15 14 14 15 15 14 14 13 13 13 13 13 12 13 13 14 13 11 11 12 10 9 9 8 7 6 6
13 12 12 14 17 17 14 14 13 12 13 12 12 13 13 13 14 14 13 13 12 11 10 8 9 8 9 9 8 10 11 12 13 14 11 10 11 11 11 12 11 12 12 12 12 14 13 15 16 15 15 15 15 16 16 15 15 16 16 16 15 15 14 13 13 13 12 12 12 12 12 13 14 13 13 13 13 12 10 11 10 9 8 8 7
13 15 16 15 14 14 15 15 15 14 14 13 12 12 12 12 13 12 12 13 12 13 12 10 8 9 8 9 9 10 11 12 11 10 11 11 11 11 13 12 10 13 14 14 14 14 13 11 13 14 14 13 14 14 14 15 15 16 16 16 16 15 15 14 13 12 12 12 12 11 12 13 13 12 12 12 13 12 10 10 9 8 8 7 6
12 12 13 13 14 13 13 14 14 14 15 14 13 13 13 13 12 12 12 13 12 12 13 11 10 9 10 10 9 8 8 9 10 10 11 11 12 12 11 10 11 13 12 13 12 11 11 12 11 11 12 12 14 15 15 15 16 17 16 16 17 17 15 14 13 13 12 11 10 10 10 11 11 13 15 13 13 12 11 10 9 10 9 9 7
12 10 9 9 11 12 11 12 13 13 14 13 12 12 12 13 13 12 12 12 11 11 12 13 12 11 10 10 10 8 8 9 9 10 11 11 10 11 11 12 13 13 12 10 10 12 12 13 13 12 12 12 13 12 13 20 18 16 17 14 14 15 16 15 14 13 12 12 12 11 10 16 18 18 17 18 18 17 15 11 11 11 10 9 8
10 12 11 9 8 9 10 11 12 12 12 11 10 10 10 10 11 12 11 11 10 11 11 11 12 12 12 11 10 9 9 9 10 10 10 10 11 10 11 11 11 11 12 12 12 13 14 13 14 14 14 13 12 11 17 24 25 24 17 15 15 15 15 15 15 16 15 15 13 12 10 15 16 16 15 20 19 20 19 17 17 16 13 11 10
7 8 10 12 12 11 11 12 12 12 12 11 11 11 11 11 11 10 10 9 9 9 10 10 10 10 11 12 11 11 11 10 9 9 9 9 9 9 10 10 10 12 12 11 14 15 13 12 12 13 15 14 13 13 22 25 26 26 20 15 14 13 14 15 15 15 13 10 10 11 12 11 12 14 12 13 16 20 20 19 20 19 19 17 14
6 7 8 10 11 11 12 12 11 11 11 12 10 10 11 12 12 10 8 8 8 9 9 10 11 10 10 10 11 11 11 10 10 10 9 7 8 9 10 9 12 11 9 12 15 13 15 15 14 16 16 14 13 15 22 25 26 26 26 19 12 13 13 15 15 15 14 9 9 8 11 10 10 19 13 11 11 13 18 21 20 20 19 19 18
6 6 6 7 8 10 11 11 10 10 10 10 8 9 10 9 10 9 8 9 7 7 8 10 11 11 11 10 9 10 10 10 9 8 8 7 8 10 10 9 8 6 10 11 11 13 12 12 14 14 13 12 12 14 22 24 25 26 25 20 12 14 14 14 15 14 13 10 11 13 13 12 9 13 11 13 11 11 12 12 13 12 12 15 19
8 8 8 8 9 9 11 12 12 12 11 11 11 9 10 11 11 11 9 9 8 7 8 8 9 10 11 11 10 9 9 9 9 7 6 7 8 8 8 7 7 10 11 12 12 12 12 11 11 11 11 12 12 16 22 24 24 25 25 21 12 12 12 12 13 14 12 11 10 10 9 10 11 14 12 15 14 13 12 11 11 10 9 7 5
8 8 9 9 9 9 9 11 10 10 11 10 10 11 11 12 11 11 12 11 10 9 9 9 10 10 10 11 11 11 10 9 7 7 7 7 7 8 8 7 6 7 6 6 6 7 9 10 10 10 11 12 9 17 21 23 25 24 26 15 12 12 12 12 13 8 8 7 11 12 11 11 13 13 17 24 18 12 11 11 10 7 6 5 4
8 8 9 9 8 8 9 8 9 9 10 11 10 11 11 11 12 11 11 12 11 11 12 12 12 11 11 10 9 9 11 12 11 9 7 7 7 7 6 4 5 6 7 8 8 8 8 10 10 11 11 11 9 16 23 24 25 26 20 12 12 11 11 12 13 10 11 9 12 11 11 10 13 13 19 24 23 18 11 11 9 8 5 4 4
8 8 8 8 8 7 8 8 9 9 9 9 9 10 11 11 11 11 11 11 10 11 11 11 11 11 11 11 10 9 10 10 9 10 10 8 6 5 5 4 6 6 7 7 5 6 6 7 10 11 12 11 9 14 24 24 26 27 19 13 12 12 11 11 11 9 9 11 11 19 15 13 13 13 21 25 25 18 11 11 9 9 8 8 7
7 8 9 9 8 8 8 8 8 9 10 8 9 10 10 11 10 10 9 10 10 11 12 12 12 11 11 10 9 9 9 9 9 9 8 8 7 7 5 4 6 5 6 4 5 6 6 6 8 9 8 11 9 11 22 24 26 27 19 12 12 11 12 11 11 11 9 8 10 14 18 13 11 14 23 24 25 18 10 11 11 9 10 10 9
7 7 7 8 8 7 8 8 9 9 8 7 7 8 9 11 11 10 9 9 9 9 9 9 10 10 10 10 10 9 9 8 8 8 7 7 6 5 5 4 5 6 6 4 5 6 7 7 6 8 8 9 9 9 15 24 25 27 23 14 11 12 13 12 10 10 11 9 10 10 14 19 19 21 23 25 24 22 13 11 10 10 11 11 7
8 8 8 7 7 8 9 10 8 8 7 6 6 7 9 10 11 11 11 11 9 9 9 9 8 9 10 10 9 8 10 9 7 7 5 4 4 5 5 4 5 4 4 5 6 6 6 6 6 7 7 8 8 10 13 23 26 28 25 20 12 13 11 11 12 11 10 11 11 11 10 19 22 22 23 25 24 24 18 12 12 10 8 7 8
7 8 7 7 7 9 10 10 8 8 7 6 7 8 9 9 9 12 12 10 10 10 10 10 9 9 10 10 10 9 8 8 7 6 7 6 3 3 4 4 4 4 6 7 6 5 6 6 5 6 7 8 8 13 10 18 26 28 26 24 14 12 12 12 11 11 10 10 8 7 9 18 25 23 24 24 25 24 23 10 11 15 15 15 9
9 9 8 8 9 10 10 10 8 6 5 6 6 9 10 10 11 13 10 10 10 10 11 11 10 11 11 11 10 9 9 7 7 6 6 8 5 3 4 3 5 5 6 7 6 6 6 6 5 5 5 7 8 10 17 14 22 27 29 25 21 14 19 12 12 13 13 9 6 7 9 21 24 24 24 24 23 24 20 11 19 18 16 17 10
8 8 9 7 8 9 11 9 8 7 7 7 7 10 11 12 14 12 9 10 10 11 11 12 12 12 12 11 10 9 7 6 7 6 6 7 7 5 4 4 5 6 6 7 6 5 6 7 8 7 7 7 7 7 14 18 16 26 26 27 24 21 20 11 9 9 5 5 7 8 12 22 23 23 24 23 22 21 12 18 18 18 18 10 7
11 12 10 7 9 11 11 11 11 10 9 8 6 9 12 16 14 9 9 11 11 12 12 13 13 13 13 11 11 9 8 7 7 6 7 7 8 5 6 5 5 6 7 7 7 6 8 8 8 9 8 7 7 8 8 15 19 19 25 25 26 23 21 20 11 7 6 7 10 17 19 22 22 22 22 22 19 20 19 17 17 15 11 6 5
10 11 11 9 9 9 11 14 15 13 11 8 8 7 13 15 12 9 9 9 12 13 13 14 14 13 13 13 15 14 11 8 8 7 8 8 8 7 7 6 6 7 8 8 8 7 8 8 9 9 10 11 9 8 9 10 13 15 18 25 26 25 24 22 15 10 15 18 18 18 20 21 21 20 15 9 6 8 17 17 15 13 6 5 5
13 13 12 11 10 12 14 14 16 16 14 10 10 10 11 11 12 11 9 9 10 12 14 13 14 13 14 14 16 14 13 10 8 7 7 8 7 7 8 8 7 8 9 9 9 8 8 9 10 9 9 9 10 9 9 9 10 11 11 14 18 17 23 21 14 11 14 12 15 15 12 15 10 17 12 12 12 11 9 8 6 5 5 5 5
12 13 11 11 12 13 15 15 16 16 14 13 12 12 12 12 11 11 10 10 11 12 13 13 15 14 13 14 14 16 16 12 10 8 8 8 8 9 9 10 10 10 10 10 10 10 11 11 10 8 8 9 10 10 10 11 11 11 11 11 13 14 14 13 13 12 12 11 11 13 15 9 7 7 7 5 5 5 5 6 5 5 5 5 6
15 14 12 12 12 15 15 16 18 17 14 14 14 14 13 13 11 8 8 11 13 14 14 16 16 14 15 14 13 12 12 12 11 9 9 10 10 10 11 11 12 10 11 12 11 11 11 10 9 9 10 11 11 13 14 15 14 17 15 13 12 12 12 12 17 22 14 12 11 9 8 9 9 10 8 7 6 5 4 5 6 5 3 4 4
15 13 13 14 14 15 16 18 18 16 15 15 16 14 13 11 9 8 9 12 14 15 16 17 16 15 15 14 12 12 11 11 11 11 11 10 13 18 13 12 12 14 21 20 15 12 11 9 10 10 12 14 16 16 17 24 24 24 25 22 16 19 17 15 23 33 20 15 15 15 15 15 13 12 12 11 10 8 8 6 6 6 5 4 5
17 16 17 16 16 16 16 18 18 17 16 15 15 14 14 12 9 8 11 14 15 15 15 16 15 14 15 14 13 13 12 12 12 12 11 12 11 11 21 26 22 16 16 23 25 24 20 16 12 10 12 21 15 11 20 25 27 27 27 26 22 25 25 27 30 21 15 13 13 13 12 11 11 12 12 12 10 11 12 9 6 5 4 5 6
Wind_Direction
257 264 272 248 232 224 214 198 207 204 204 194 195 199 195 192 184 198 192 181 179 176 180 177 180 179 180 194 201 193 192 190 191 195 195 199 189 186 181 182 176 172 171 166 172 170 173 166 168 179 179 180 184 191 182 174 171 160 144 130 135 120 87 18 104 120 116 74 32 59 43 23 50 71 63 54 52 53 49 62 37 49 33 35 13
273 277 268 260 240 218 205 202 191 196 211 195 200 200 197 191 193 198 176 186 187 187 185 186 190 186 185 194 194 189 185 187 197 196 199 193 188 185 183 181 178 176 173 174 171 174 171 174 179 182 181 188 189 171 168 170 161 159 152 100 37 132 140 209 227 110 34 139 142 55 15 355 25 20 291 313 9 15 33 69 62 53 44 24 12
278 263 266 255 233 226 209 210 209 208 203 199 205 195 193 193 202 189 188 186 192 189 184 194 192 195 195 195 189 188 202 205 203 196 184 184 185 183 184 183 176 179 177 175 175 179 178 178 185 180 184 177 171 176 177 179 180 173 177 152 123 55 117 188 146 196 139 132 117 86 7 66 341 344 339 6 338 317 18 69 82 63 46 43 20
274 275 276 267 218 230 221 229 226 219 217 210 203 198 196 201 200 191 191 191 189 192 193 192 185 179 170 104 160 149 176 169 167 159 180 170 186 187 190 182 182 182 175 180 181 180 181 184 179 180 185 185 182 175 181 185 180 184 181 173 144 129 152 194 115 177 140 139 81 104 188 126 344 257 306 289 256 242 123 61 79 96 12 37 40
279 287 285 282 276 276 242 246 235 223 220 215 202 199 200 204 198 193 191 192 191 189 186 169 154 140 127 88 100 89 77 145 157 193 188 189 188 195 195 181 183 183 183 183 181 183 184 183 181 184 182 186 184 184 185 190 186 183 177 168 180 152 173 164 202 80 108 303 142 110 68 27 215 214 47 291 4 96 10 21 54 118 83 83 70
268 276 281 306 359 320 300 270 239 234 230 224 209 209 204 203 195 193 191 189 189 185 178 170 175 171 163 162 168 180 186 181 197 199 181 191 202 187 180 189 186 186 182 183 187 182 185 185 184 180 185 185 190 193 188 170 183 184 192 183 179 192 144 149 133 110 67 73 157 129 165 173 178 219 130 241 332 335 302 306 275 352 329 105 44
262 267 307 350 327 319 272 242 234 234 236 220 214 212 209 203 194 192 192 190 185 181 176 175 178 182 185 188 187 187 193 206 202 189 190 196 184 184 192 186 188 184 185 185 187 185 183 184 184 186 186 188 187 182 186 193 190 192 178 188 185 152 138 141 160 167 86 36 43 44 68 47 124 131 203 94 325 311 327 320 269 332 334 253 264
274 306 339 296 281 268 267 250 236 234 235 213 220 214 206 202 191 192 191 188 185 178 181 183 183 186 188 194 195 200 204 203 188 194 189 182 185 188 182 187 187 188 185 187 187 185 182 184 184 183 186 189 184 193 195 191 180 187 190 188 166 180 168 155 163 168 160 171 99 77 64 57 48 69 109 156 154 189 288 319 278 334 355 272 257
13 329 315 292 279 272 257 260 252 250 237 216 217 214 213 206 197 190 194 189 185 181 183 189 190 188 191 192 200 211 208 198 175 176 182 180 187 180 181 183 186 191 189 187 187 184 185 185 182 185 187 188 190 195 194 182 186 180 179 179 186 191 187 155 149 178 165 157 139 79 81 56 47 39 57 75 128 138 269 248 269 333 338 268 269
35 23 267 275 263 267 268 284 303 273 250 239 240 208 198 198 202 195 200 191 185 186 188 190 192 187 193 201 205 205 192 165 155 175 180 172 185 182 180 178 186 188 193 188 185 190 189 184 185 189 190 188 190 192 185 185 187 192 190 187 181 177 176 169 171 169 171 155 162 149 136 112 68 44 39 111 68 154 199 198 210 267 300 284 259
344 292 267 264 288 292 304 302 304 313 291 257 221 186 178 182 194 206 209 195 190 191 188 193 192 193 201 201 203 198 186 168 167 179 171 173 188 184 182 186 182 191 184 190 195 191 192 188 189 192 189 188 189 187 191 187 189 188 186 180 184 176 175 173 151 159 155 160 163 167 166 170 171 173 182 183 162 158 173 231 181 207 231 298 279
289 305 306 313 329 326 339 323 326 319 321 266 218 184 178 185 182 198 207 210 203 197 196 198 196 202 205 201 201 198 184 184 188 186 183 184 184 183 184 177 187 184 187 194 197 193 191 192 193 191 191 189 195 191 187 187 181 177 177 184 184 182 164 164 159 160 168 168 177 182 180 177 163 160 173 169 174 190 175 185 147 167 261 240 254
295 306 320 331 333 325 322 320 318 298 259 246 225 199 191 185 188 193 203 195 202 203 204 203 203 207 205 203 203 195 193 193 196 190 184 185 185 182 177 187 178 183 197 197 198 189 187 189 192 193 196 197 191 184 188 180 178 180 181 184 181 181 183 176 173 181 172 175 184 185 170 176 184 158 146 159 151 130 147 154 148 166 190 225 242
313 329 323 309 313 319 320 303 293 276 258 240 231 207 198 195 195 202 206 188 192 200 211 211 213 212 207 205 202 196 201 197 197 195 190 192 186 186 185 185 186 196 192 199 193 184 190 196 190 195 196 191 190 188 183 183 180 183 182 182 187 188 175 183 182 173 180 177 156 165 182 180 166 152 149 146 154 142 152 184 157 83 154 266 185
354 333 292 307 300 290 287 299 293 263 241 233 226 220 196 202 200 207 207 199 194 198 200 215 219 216 213 210 205 201 202 199 201 199 190 190 191 189 192 190 193 197 196 195 177 188 194 190 192 191 191 192 189 189 187 183 184 182 185 188 182 178 182 176 179 173 176 174 175 177 168 166 165 163 156 167 162 174 161 167 154 141 336 319 313
309 328 336 315 285 278 281 288 274 262 244 228 224 214 207 210 205 211 210 202 201 201 207 208 214 216 219 215 213 207 205 204 205 204 203 195 192 190 191 193 198 189 188 180 189 183 189 191 190 195 189 188 191 190 186 186 184 183 184 183 185 178 177 181 180 177 181 175 171 160 156 175 166 168 170 163 168 160 153 153 158 156 167 262 348
324 321 309 306 299 279 247 238 261 259 255 232 224 209 210 205 203 214 218 215 212 211 209 203 207 212 220 222 219 214 209 206 205 205 205 199 193 196 194 197 188 187 190 186 181 186 185 187 189 190 189 187 186 190 189 187 185 188 187 185 186 179 178 184 174 180 180 167 167 172 172 165 172 164 163 164 163 160 163 163 173 173 169 154 192
291 293 282 264 259 265 254 219 208 225 251 263 247 222 217 210 206 211 214 219 222 215 211 207 206 209 214 217 221 222 221 221 213 201 190 191 202 202 201 191 199 194 179 181 179 180 185 186 188 188 187 184 188 186 187 188 185 193 192 192 188 173 178 176 179 174 169 167 163 164 164 168 168 170 172 168 169 169 167 172 177 182 174 179 176
316 308 297 241 226 271 332 6 5 340 307 284 295 284 267 245 232 219 223 224 224 219 221 226 222 222 215 219 220 225 229 232 230 218 192 195 198 201 203 206 183 183 186 178 179 181 182 185 186 187 185 187 184 186 183 186 187 190 189 189 180 176 180 180 179 174 172 166 169 171 168 169 171 173 164 168 171 167 170 166 176 174 200 198 169
309 312 318 336 348 359 15 11 359 3 350 337 331 333 296 281 269 256 259 250 226 218 210 220 220 224 229 219 221 221 224 228 229 223 215 206 203 200 200 195 200 183 186 181 186 185 183 183 187 185 184 183 184 185 182 184 184 193 188 188 184 180 184 183 178 177 168 174 169 174 177 173 173 166 169 172 173 170 162 170 176 182 195 189 168
323 343 357 4 5 2 2 16 15 13 19 3 350 335 319 319 294 281 264 253 235 224 214 225 212 223 221 225 223 214 222 217 217 222 228 227 208 201 202 202 168 194 185 188 190 188 187 186 183 186 185 184 184 183 184 183 186 190 190 189 180 185 188 188 174 177 175 174 178 178 178 178 167 172 172 167 170 170 164 171 174 180 189 188 181
6 14 13 12 6 1 1 360 13 25 24 15 0 350 342 327 310 295 288 272 260 248 233 236 229 231 227 230 229 230 226 213 217 216 222 222 223 214 205 187 200 199 185 192 190 188 188 186 186 187 186 185 185 186 183 184 187 188 189 186 184 185 189 186 180 185 181 181 177 176 180 175 176 173 166 173 172 169 173 172 185 185 193 194 191
20 17 13 11 7 5 2 6 5 4 4 11 21 18 360 345 330 316 301 284 272 270 274 257 242 238 237 237 236 231 224 223 223 222 221 220 218 219 206 204 208 197 195 193 190 188 189 187 188 186 185 186 187 187 186 186 189 188 187 187 186 186 188 185 188 192 185 176 176 184 183 173 170 171 174 173 167 176 175 182 188 189 193 195 193
16 13 15 11 9 9 13 9 4 1 2 2 358 0 8 10 355 331 315 299 297 280 266 251 245 245 242 238 233 228 221 224 225 225 227 225 222 220 213 218 211 194 194 198 193 192 187 189 189 186 187 188 188 189 187 190 189 188 189 189 186 189 192 192 191 188 183 181 183 180 184 176 172 173 173 172 177 176 182 186 187 194 192 192 190
14 14 9 10 14 13 8 4 2 359 359 360 1 2 1 359 358 354 340 319 301 286 273 259 248 251 246 239 238 222 224 226 228 228 230 227 220 218 210 218 217 218 209 194 196 191 191 190 192 191 190 190 190 187 187 189 190 191 191 188 187 190 194 194 192 190 186 185 184 187 179 173 174 174 174 178 180 182 184 183 190 190 188 186 179
7 9 13 13 7 8 8 4 1 1 358 356 358 359 359 360 357 353 349 341 328 311 288 274 263 257 254 245 243 229 229 229 229 231 232 231 230 227 219 211 204 212 211 210 200 193 196 196 198 197 195 193 188 187 189 190 189 187 188 190 190 191 194 192 191 190 188 189 187 184 177 175 177 180 182 180 179 182 180 187 187 187 181 178 181
6 5 4 6 10 8 2 1 360 357 358 358 357 357 357 356 355 354 350 346 338 329 309 290 277 265 266 258 250 239 236 235 233 233 231 224 221 218 213 214 204 209 205 205 208 202 202 199 200 196 197 192 190 191 190 188 189 188 187 187 189 191 192 192 193 189 187 188 188 184 179 179 183 185 180 179 179 179 184 188 186 180 175 176 183
6 8 9 7 0 360 360 357 356 355 353 356 356 357 356 353 350 349 347 349 347 341 332 313 296 287 277 269 256 248 244 242 240 237 232 229 224 218 216 212 199 206 207 207 205 208 210 208 205 200 198 189 188 191 192 190 188 190 189 189 188 190 190 190 187 185 185 188 188 185 183 184 185 185 182 178 176 180 178 183 182 175 177 173 175
9 3 2 2 359 355 352 352 349 349 352 352 352 352 351 349 349 347 348 350 346 347 346 338 322 304 289 278 273 263 256 251 244 240 235 230 226 223 219 210 205 209 208 207 205 205 203 206 210 207 202 197 194 193 191 190 189 189 192 191 189 187 187 186 184 185 184 183 184 186 185 184 185 185 184 180 183 177 172 176 181 176 178 177 178
356 357 357 355 349 349 347 344 346 347 347 347 348 348 348 345 343 342 344 345 348 352 354 353 348 331 313 300 287 278 267 257 250 244 241 235 230 224 216 214 212 210 208 202 199 201 204 205 201 203 200 201 206 203 191 188 187 188 187 189 190 189 185 183 182 181 181 182 183 183 184 182 183 184 184 185 185 185 185 180 174 176 178 176 174
351 348 347 348 345 341 341 342 342 343 340 341 339 337 338 338 338 338 340 341 345 349 356 357 353 345 335 326 315 298 283 269 259 253 250 243 234 226 220 218 214 206 205 201 196 202 204 201 201 200 201 206 208 206 190 191 191 188 184 185 186 188 186 182 181 180 183 181 181 182 178 182 181 182 184 187 187 188 188 188 185 185 185 176 166
344 342 340 342 342 342 341 338 335 335 336 337 337 336 337 339 334 332 332 333 341 348 351 353 350 345 344 337 329 319 308 292 278 265 255 246 241 232 227 221 213 208 206 199 204 206 201 197 200 203 206 208 208 202 194 194 192 190 184 184 186 186 186 187 185 183 182 169 165 170 179 178 179 180 176 185 189 191 191 192 192 191 191 186 184
331 336 339 336 335 332 330 331 331 331 332 329 329 331 335 332 330 324 323 334 338 343 346 350 347 347 345 340 333 327 315 306 294 282 273 263 250 239 233 224 219 215 200 206 211 200 203 200 197 202 208 207 210 202 199 195 192 191 187 182 187 186 185 189 186 184 180 163 163 152 172 181 179 180 177 181 182 190 194 194 194 195 195 196 200
316 321 323 322 322 324 325 324 321 321 320 318 321 323 322 321 317 317 325 332 332 338 346 344 345 344 343 340 336 331 323 312 303 293 283 269 255 244 236 229 227 210 210 214 212 211 210 203 204 203 206 205 208 202 200 198 195 192 188 181 185 184 189 189 187 184 180 166 169 171 175 178 172 177 178 180 184 187 187 190 195 197 200 206 210
314 315 316 316 315 317 319 322 324 325 324 324 325 328 327 326 328 326 327 330 331 334 343 346 342 340 341 341 338 333 324 316 309 297 281 268 255 253 245 231 217 211 212 213 210 211 210 208 206 204 204 205 206 198 200 199 196 191 189 181 182 184 186 188 187 187 182 172 170 173 168 163 162 178 180 181 181 185 185 189 193 195 195 195 197
293 300 303 307 309 310 311 310 312 317 318 322 320 326 329 326 326 326 329 333 332 336 339 344 342 341 340 337 337 333 329 322 311 303 291 270 254 246 243 233 224 227 226 223 225 216 212 209 207 202 206 209 200 196 200 199 195 192 188 181 182 185 185 185 186 173 163 164 176 178 171 171 172 180 185 186 185 177 177 179 183 184 182 188 196
274 278 285 289 291 295 298 300 302 307 312 315 321 325 325 323 325 326 328 329 332 335 339 340 338 336 335 332 331 330 328 328 325 319 299 284 277 267 261 239 229 228 220 217 217 210 210 209 205 204 205 208 198 195 197 196 194 192 186 181 180 183 185 186 187 173 173 169 181 179 176 169 175 181 186 186 184 176 171 175 178 179 179 183 203
261 272 277 284 287 289 293 292 294 299 302 309 317 321 321 320 318 321 324 324 328 328 332 333 330 330 328 328 330 331 328 324 322 316 307 296 281 271 257 230 229 231 228 225 210 213 211 207 206 207 205 205 201 194 195 196 193 193 183 177 179 183 186 184 184 173 172 178 181 182 178 174 176 178 184 185 185 178 171 174 172 175 182 195 203
260 272 281 284 282 282 287 287 284 292 298 306 311 315 315 312 311 312 313 315 320 324 329 330 326 324 322 320 321 324 325 324 320 312 304 294 282 266 254 218 227 228 233 216 202 207 211 206 210 207 199 202 198 196 198 197 194 193 182 172 176 183 183 188 181 176 175 169 176 184 182 177 174 173 182 183 181 175 167 174 173 174 189 199 200
267 272 268 275 279 284 283 278 280 282 289 296 305 309 308 306 305 305 305 306 310 315 317 314 314 315 314 316 317 318 315 316 311 306 305 288 284 278 256 233 232 216 220 207 210 211 208 211 197 197 201 200 194 194 201 200 198 196 183 169 177 181 188 186 181 177 172 177 177 178 183 181 177 180 185 185 186 177 170 174 175 183 193 197 175
275 273 277 279 282 280 280 277 273 279 285 290 295 299 298 300 302 304 300 300 303 308 311 310 305 307 310 309 308 309 312 310 303 295 290 279 256 254 254 244 234 226 203 206 206 208 206 209 197 199 197 199 191 188 201 202 202 202 188 172 184 189 184 179 181 176 180 175 175 179 176 184 182 181 185 189 188 184 176 178 185 187 191 180 177
271 274 279 279 282 283 282 281 278 283 286 290 292 290 289 291 292 289 292 301 309 312 313 311 307 306 305 303 305 304 302 301 304 307 304 292 285 272 252 249 241 224 219 217 209 204 206 205 204 199 200 198 188 189 195 205 205 204 196 181 181 191 179 175 177 183 180 181 172 162 166 185 186 185 188 190 189 190 184 173 190 194 198 199 197
289 288 281 287 292 286 278 275 280 278 285 286 285 285 286 288 283 283 294 302 308 313 311 309 308 307 306 303 299 297 298 303 298 296 288 284 281 269 257 250 245 241 235 230 215 205 199 207 206 211 209 198 191 190 196 201 205 205 202 192 185 179 184 182 181 182 185 173 136 153 163 181 186 186 187 187 187 189 188 175 188 197 197 201 179
275 273 282 284 280 281 286 285 281 283 285 283 280 285 286 286 283 291 303 306 312 310 309 308 307 305 302 297 294 288 282 277 276 273 265 265 259 238 238 230 236 235 241 235 230 214 210 209 207 210 209 203 201 196 201 200 207 208 207 199 189 181 182 177 181 185 165 124 146 152 168 180 185 184 184 185 185 186 181 179 186 193 197 166 108
293 293 292 293 287 290 291 288 285 283 280 282 279 284 290 288 289 303 305 310 310 309 306 304 303 300 297 296 295 290 279 266 258 245 252 250 248 225 232 224 216 232 234 237 234 214 218 221 217 216 208 203 198 199 202 205 204 210 210 197 192 183 184 173 171 166 118 157 164 167 171 182 186 184 183 182 184 186 180 187 190 179 130 90 125
291 292 295 294 293 289 289 290 291 286 282 278 279 276 280 282 292 299 303 308 307 305 303 299 298 298 300 303 303 298 287 265 252 234 236 239 238 228 224 224 207 223 227 234 236 224 224 224 230 225 208 195 192 193 203 205 206 208 212 204 189 186 179 172 157 155 161 165 168 171 174 183 189 188 181 165 125 169 183 175 151 121 114 125 127
292 288 296 301 299 294 291 289 289 291 291 289 286 283 277 286 292 298 305 305 301 300 298 299 297 300 301 301 299 297 295 287 256 244 234 238 230 225 224 225 215 218 225 231 234 230 227 226 231 227 212 188 175 198 202 204 203 206 203 207 187 184 174 159 148 155 160 164 171 171 176 179 171 169 147 140 138 134 118 104 84 105 118 139 145
287 289 293 294 289 287 287 288 286 285 290 293 290 286 286 288 290 300 310 308 301 297 298 298 298 299 296 293 290 288 287 283 275 250 244 241 230 222 225 224 216 213 217 226 226 228 226 222 226 219 202 201 203 202 203 200 204 200 201 197 178 174 170 159 155 154 156 156 156 166 170 160 142 113 110 86 98 97 115 113 108 110 127 137 163
294 295 298 290 292 291 287 287 285 287 290 290 287 286 287 288 293 310 317 311 303 302 302 299 296 293 286 285 284 284 282 281 276 265 242 238 236 226 226 234 225 217 214 221 220 227 227 223 217 208 193 204 209 213 210 196 200 198 191 188 176 176 166 164 162 155 147 145 144 145 134 144 152 151 143 147 141 129 118 114 119 129 141 159 150
290 294 292 290 287 286 288 288 286 289 291 289 290 288 287 289 303 314 318 306 304 301 296 290 287 286 284 282 281 279 279 280 276 272 267 256 234 233 231 228 240 219 223 224 220 226 222 212 216 214 196 200 206 213 201 197 200 200 201 196 183 174 166 159 164 161 152 153 162 163 169 170 169 166 169 169 171 168 163 153 168 171 165 163 166
297 300 297 295 292 290 290 286 287 293 292 292 292 290 291 295 308 313 309 300 298 293 287 282 280 277 278 281 282 283 281 279 276 274 267 265 269 242 236 239 238 233 221 229 230 232 230 220 210 219 213 219 228 222 204 202 201 201 200 199 185 178 168 166 165 157 158 164 168 173 175 173 173 173 174 172 166 169 162 143 160 166 158 174 170